Location: Unspecified
(0.0000°N, 0.0000°E)
Time: 09:55:23
(UTC+00:00)

Explorer 11/Cluster Stage 4 - Pass Details

Date: 02 November 2024
Orbit: 464 x 1202 km, 28.8° (Epoch: 05 December)

Event Time Altitude Azimuth Distance (km) Brightness Sun altitude
Rises 19:00:50 0° 270° (W) 4,042 11.7 -18.6°
Reaches altitude 10° 19:04:19 10° 257° (WSW) 3,123 10.9 -19.5°
Maximum altitude 19:10:21 24° 207° (SSW) 2,275 9.4 -20.9°
Drops below altitude 10° 19:16:19 10° 157° (SSE) 3,061 9.5 -22.3°
Sets 19:19:43 0° 143° (SE) 3,945 10.0 -23.2°
